Weather History for Chester, CT

Change the Weather History Date:

Tuesday, January 22, 2013

  Actual Average (KHVN) Record (KHVN)
Temperature  
Mean Temperature 20 °F -  
Max Temperature 26 °F 32 °F 52 °F (1986)
Min Temperature 12 °F 20 °F -2 °F (1984)
Degree Days  
Heating Degree Days 45    
Moisture  
Dew Point 2 °F    
Average Humidity 47    
Maximum Humidity 93    
Minimum Humidity 28    
Precipitation  
Precipitation 0.00 in - - ()
Sea Level Pressure  
Sea Level Pressure 29.93 in    
Wind  
Wind Speed 7 mph (NW)    
Max Wind Speed 17 mph    
Max Gust Speed 26 mph    
Visibility 10 miles    
Events      
Averages and records for this station are not official NWS values.
T = Trace of Precipitation, MM = Missing Value Source: NWS Daily Summary

Daily Weather History Graph

Daily Weather History Graph

Search for Another Location

Airport:

Trip Planner

Search our weather history database for the weather conditions in past years. The results will help you decide how hot, cold, wet, or windy it might be!

Date:

Astronomy

Jan. 22, 2013 Rise Set
Actual Time 7:09 AM EST 4:54 PM EST
Civil Twilight 6:39 AM EST 5:24 PM EST
Nautical Twilight 6:06 AM EST 5:57 PM EST
Astronomical Twilight 5:33 AM EST 6:30 PM EST
Moon 1:14 PM EST (1/22) 3:29 AM EST (1/22)
Length of Visible Light 10h 44m
Length of Day
9h 44m
Waxing Gibbous, 82% of the Moon is Illuminated
Jan 22
Waxing Gibbous
Jan 26
Full
Feb 3
Last Quarter
Feb 10
New
Feb 17
First Quarter

Hourly Weather History & Observations

Time (EST) Temp. Windchill Dew Point Humidity Pressure Visibility Wind Dir Wind Speed Gust Speed Precip Events Conditions
12:15 AM 26.6 °F - 24.8 °F 93% 29.77 in 10.0 mi Calm Calm - N/A   Scattered Clouds
12:35 AM 26.6 °F - 24.8 °F 93% 29.77 in 8.0 mi Calm Calm - N/A   Partly Cloudy
12:55 AM 26.6 °F 22.6 °F 23.0 °F 86% 29.76 in 9.0 mi WSW 3.5 mph - N/A   Clear
1:15 AM 24.8 °F 20.5 °F 23.0 °F 93% 29.77 in 8.0 mi West 3.5 mph - N/A   Clear
1:35 AM 24.8 °F 19.1 °F 23.0 °F 93% 29.77 in 9.0 mi West 4.6 mph - N/A   Clear
1:55 AM 23.0 °F 15.8 °F 21.2 °F 93% 29.77 in 10.0 mi WNW 5.8 mph - N/A   Clear
2:15 AM 23.0 °F 17.0 °F 21.2 °F 93% 29.77 in 10.0 mi West 4.6 mph - N/A   Clear
2:35 AM 23.0 °F 14.7 °F 19.4 °F 86% 29.78 in 10.0 mi NW 6.9 mph - N/A   Clear
2:55 AM 23.0 °F 13.9 °F 19.4 °F 86% 29.78 in 10.0 mi NW 8.1 mph - N/A   Scattered Clouds
3:15 AM 23.0 °F 13.9 °F 17.6 °F 80% 29.78 in 10.0 mi NW 8.1 mph 16.1 mph N/A   Overcast
3:35 AM 23.0 °F 13.1 °F 15.8 °F 74% 29.79 in 10.0 mi NNW 9.2 mph - N/A   Overcast
3:55 AM 23.0 °F 13.1 °F 14.0 °F 68% 29.80 in 10.0 mi NNW 9.2 mph 16.1 mph N/A   Overcast
4:15 AM 23.0 °F 13.9 °F 14.0 °F 68% 29.81 in 10.0 mi NNW 8.1 mph - N/A   Mostly Cloudy
4:35 AM 23.0 °F 17.0 °F 14.0 °F 68% 29.82 in 10.0 mi NW 4.6 mph - N/A   Mostly Cloudy
4:55 AM 21.2 °F 10.1 °F 12.2 °F 68% 29.83 in 10.0 mi NW 10.4 mph - N/A   Partly Cloudy
5:15 AM 21.2 °F 10.1 °F 12.2 °F 68% 29.84 in 10.0 mi NW 10.4 mph 18.4 mph N/A   Clear
5:35 AM 21.2 °F 10.1 °F 10.4 °F 63% 29.86 in 10.0 mi NW 10.4 mph 18.4 mph N/A   Mostly Cloudy
5:55 AM 21.2 °F 10.1 °F 8.6 °F 58% 29.87 in 10.0 mi NW 10.4 mph 21.9 mph N/A   Scattered Clouds
6:15 AM 21.2 °F 8.3 °F 6.8 °F 54% 29.88 in 10.0 mi NW 13.8 mph 23.0 mph N/A   Clear
6:35 AM 19.4 °F 7.2 °F 5.0 °F 54% 29.88 in 10.0 mi NW 11.5 mph 18.4 mph N/A   Clear
6:55 AM 19.4 °F 6.6 °F 5.0 °F 54% 29.89 in 10.0 mi NW 12.7 mph 20.7 mph N/A   Clear
7:15 AM 19.4 °F 6.6 °F 5.0 °F 54% 29.89 in 10.0 mi NNW 12.7 mph - N/A   Clear
7:35 AM 21.2 °F 10.9 °F 3.2 °F 46% 29.90 in 10.0 mi NW 9.2 mph 21.9 mph N/A   Clear
7:55 AM 21.2 °F 9.5 °F 1.4 °F 42% 29.91 in 10.0 mi NW 11.5 mph 19.6 mph N/A   Clear
8:15 AM 21.2 °F 8.3 °F 1.4 °F 42% 29.92 in 10.0 mi NW 13.8 mph 20.7 mph N/A   Clear
8:35 AM 21.2 °F 8.9 °F 1.4 °F 42% 29.93 in 10.0 mi NW 12.7 mph 24.2 mph N/A   Clear
8:55 AM 21.2 °F 9.5 °F 1.4 °F 42% 29.93 in 10.0 mi NW 11.5 mph 19.6 mph N/A   Clear
9:15 AM 21.2 °F 8.3 °F 1.4 °F 42% 29.93 in 10.0 mi NNW 13.8 mph 21.9 mph N/A   Clear
9:35 AM 23.0 °F 11.7 °F -0.4 °F 36% 29.93 in 10.0 mi NW 11.5 mph 18.4 mph N/A   Clear
9:55 AM 23.0 °F 9.2 °F -4.0 °F 31% 29.93 in 10.0 mi WNW 17.3 mph 25.3 mph N/A   Clear
10:15 AM 23.0 °F 10.6 °F -4.0 °F 31% 29.92 in 10.0 mi WNW 13.8 mph 25.3 mph N/A   Clear
10:35 AM 23.0 °F 9.6 °F -5.8 °F 28% 29.92 in 10.0 mi NW 16.1 mph 26.5 mph N/A   Clear
10:55 AM 23.0 °F 13.1 °F -4.0 °F 31% 29.92 in 10.0 mi NW 9.2 mph 23.0 mph N/A   Clear
11:15 AM 23.0 °F 11.7 °F -4.0 °F 31% 29.91 in 10.0 mi WNW 11.5 mph 18.4 mph N/A   Clear
11:35 AM 23.0 °F 11.1 °F -4.0 °F 31% 29.91 in 10.0 mi NW 12.7 mph 23.0 mph N/A   Clear
11:55 AM 23.0 °F 13.1 °F -4.0 °F 31% 29.91 in 10.0 mi WNW 9.2 mph 26.5 mph N/A   Clear
12:15 PM 23.0 °F 11.7 °F -4.0 °F 31% 29.90 in 10.0 mi WNW 11.5 mph 21.9 mph N/A   Clear
12:35 PM 23.0 °F 11.7 °F -4.0 °F 31% 29.90 in 10.0 mi NW 11.5 mph 26.5 mph N/A   Clear
12:55 PM 23.0 °F 10.6 °F -4.0 °F 31% 29.91 in 10.0 mi NW 13.8 mph 24.2 mph N/A   Clear
1:15 PM 23.0 °F 10.6 °F -4.0 °F 31% 29.91 in 10.0 mi NNW 13.8 mph 26.5 mph N/A   Partly Cloudy
1:35 PM 21.2 °F 10.9 °F -4.0 °F 33% 29.92 in 10.0 mi NW 9.2 mph 26.5 mph N/A   Partly Cloudy
1:55 PM 23.0 °F 11.1 °F -4.0 °F 31% 29.93 in 10.0 mi NW 12.7 mph 20.7 mph N/A   Partly Cloudy
2:15 PM 23.0 °F 11.1 °F -5.8 °F 28% 29.93 in 10.0 mi WNW 12.7 mph 19.6 mph N/A   Clear
2:35 PM 23.0 °F 10.1 °F -5.8 °F 28% 29.94 in 10.0 mi WNW 15.0 mph 24.2 mph N/A   Clear
2:55 PM 23.0 °F 13.1 °F -5.8 °F 28% 29.94 in 10.0 mi NW 9.2 mph 18.4 mph N/A   Clear
3:15 PM 21.2 °F 9.5 °F -5.8 °F 30% 29.94 in 10.0 mi NW 11.5 mph 20.7 mph N/A   Clear
3:35 PM 21.2 °F 10.9 °F -5.8 °F 30% 29.95 in 10.0 mi WNW 9.2 mph 16.1 mph N/A   Clear
3:55 PM 21.2 °F 11.7 °F -5.8 °F 30% 29.96 in 10.0 mi NW 8.1 mph 20.7 mph N/A   Clear
4:15 PM 21.2 °F 11.7 °F -5.8 °F 30% 29.97 in 10.0 mi WNW 8.1 mph - N/A   Clear
4:35 PM 21.2 °F 12.6 °F -5.8 °F 30% 29.98 in 10.0 mi WNW 6.9 mph 17.3 mph N/A   Clear
4:55 PM 19.4 °F 8.6 °F -5.8 °F 33% 30.00 in 10.0 mi WNW 9.2 mph - N/A   Clear
5:15 PM 19.4 °F 11.5 °F -4.0 °F 36% 30.01 in 10.0 mi WNW 5.8 mph - N/A   Clear
5:35 PM 19.4 °F 9.5 °F -4.0 °F 36% 30.02 in 10.0 mi WNW 8.1 mph - N/A   Partly Cloudy
5:55 PM 19.4 °F 11.5 °F -4.0 °F 36% 30.03 in 10.0 mi West 5.8 mph - N/A   Partly Cloudy
6:15 PM 19.4 °F 11.5 °F -4.0 °F 36% 30.04 in 10.0 mi WNW 5.8 mph - N/A   Clear
6:35 PM 19.4 °F 12.8 °F -5.8 °F 33% 30.04 in 10.0 mi WNW 4.6 mph - N/A   Partly Cloudy
6:55 PM 19.4 °F 11.5 °F -5.8 °F 33% 30.05 in 10.0 mi WNW 5.8 mph - N/A   Scattered Clouds
7:15 PM 17.6 °F 10.7 °F -4.0 °F 38% 30.06 in 10.0 mi WNW 4.6 mph - N/A   Partly Cloudy
7:35 PM 17.6 °F 8.2 °F -4.0 °F 38% 30.06 in 10.0 mi WNW 6.9 mph - N/A   Clear
7:55 PM 17.6 °F 8.2 °F -5.8 °F 35% 30.06 in 10.0 mi WNW 6.9 mph - N/A   Clear
8:15 PM 17.6 °F 8.2 °F -5.8 °F 35% 30.07 in 10.0 mi WNW 6.9 mph - N/A   Clear
8:35 PM 17.6 °F 7.3 °F -5.8 °F 35% 30.08 in 10.0 mi West 8.1 mph - N/A   Clear
8:55 PM 17.6 °F 5.7 °F -5.8 °F 35% 30.08 in 10.0 mi WNW 10.4 mph - N/A   Clear
9:15 PM 15.8 °F 5.1 °F -5.8 °F 38% 30.09 in 10.0 mi WNW 8.1 mph - N/A   Clear
9:35 PM 15.8 °F 6.1 °F -5.8 °F 38% 30.10 in 10.0 mi WNW 6.9 mph 16.1 mph N/A   Clear
9:55 PM 15.8 °F 6.1 °F -5.8 °F 38% 30.10 in 10.0 mi WNW 6.9 mph - N/A   Clear
10:15 PM 14.0 °F 8.2 °F -5.8 °F 41% 30.10 in 10.0 mi WNW 3.5 mph - N/A   Clear
10:35 PM 14.0 °F 5.1 °F -5.8 °F 41% 30.10 in 10.0 mi WNW 5.8 mph - N/A   Clear
10:55 PM 14.0 °F 2.9 °F -5.8 °F 41% 30.10 in 10.0 mi WNW 8.1 mph - N/A   Clear
11:35 PM 14.0 °F 3.9 °F -5.8 °F 41% 30.10 in 10.0 mi WNW 6.9 mph - N/A   Clear
11:55 PM 12.2 °F 6.1 °F -5.8 °F 45% 30.09 in 10.0 mi WNW 3.5 mph - N/A   Clear